Cosmos 2084 Rocket - Orbit

View from above orbital plane
View from above orbital plane
View from above satellite
View from above satellite

Ground track
Ground track

The orbit data is extracted from the following two-line orbital elements,

1 20666U 90055D   13140.15060041  .00000808  00000-0  10384-3 0  8641
2 20666 062.7896 068.9644 0045856 206.1654 153.7122 14.88576263239228
Epoch (UTC): 20 May 2013 03:36:51
Eccentricity: 0.0045856
inclination: 62.7896°
perigee height: 570 km
apogee height: 634 km
right ascension of ascending node: 68.9644°
argument of perigee: 206.1654°
revolutions per day: 14.88576263
mean anomaly at epoch: 153.7122°
orbit number at epoch: 23922

The dashed part of the orbit path shows where the satellite is in the earth's shadow,  

Developed and maintained by Chris Peat, Heavens-Above GmbH. Please read the updated FAQ before sending e-mail. Imprint. DLR